W2CS Weather Reports


Display with metric or nautical units.
time (UTC)temp
F
wind
direction
speed
MPH
gust
MPH
rain 1hr
in
rain 24hr
in
rain mn
in
humidity
%
barometer
mb
20260510170541 62 267 0.0 2.0 0.00 0.00 0.00 88 1013.6
20260510170100 61 278 0.0 2.0 0.00 0.00 0.00 88 1013.5
20260510165539 61 0 0.0 1.0 0.00 0.00 0.00 88 1013.6
20260510165041 61 0 0.0 2.0 0.00 0.00 0.00 88 1013.6
20260510164601 61 245 0.0 3.0 0.00 0.00 0.00 86 1013.7
20260510164038 62 0 0.0 4.0 0.00 0.00 0.00 86 1013.8
20260510163539 62 243 1.0 4.0 0.00 0.00 0.00 86 1013.8
20260510163054 63 0 1.0 4.0 0.00 0.00 0.00 86 1013.8
20260510162539 63 243 0.0 4.0 0.00 0.00 0.00 86 1013.9
20260510162038 63 273 0.0 3.0 0.00 0.00 0.00 88 1013.8
20260510161551 63 254 0.0 2.0 0.00 0.00 0.00 87 1013.7
20260510161039 63 280 0.0 3.0 0.00 0.00 0.00 87 1013.7
20260510160540 63 278 1.0 4.0 0.00 0.00 0.00 86 1013.7
20260510160100 63 0 0.0 4.0 0.00 0.00 0.00 86 1013.6
20260510155539 63 175 0.0 4.0 0.00 0.00 0.00 87 1013.6
20260510155039 63 299 1.0 4.0 0.00 0.00 0.00 86 1013.6
20260510154603 63 347 0.0 4.0 0.00 0.00 0.00 85 1013.7
20260510154039 63 0 1.0 3.0 0.00 0.00 0.00 87 1013.7
20260510153538 63 0 1.0 3.0 0.00 0.00 0.00 86 1013.7
20260510153051 63 268 1.0 3.0 0.00 0.00 0.00 87 1013.8
20260510152539 63 231 0.0 3.0 0.00 0.00 0.00 87 1013.8
20260510152039 63 345 0.0 3.0 0.00 0.00 0.00 88 1013.7
20260510151550 62 0 0.0 4.0 0.00 0.00 0.00 89 1013.8
20260510151038 62 0 0.0 4.0 0.00 0.00 0.00 87 1013.8
20260510150540 62 182 0.0 4.0 0.00 0.00 0.00 88 1013.7
20260510150055 61 0 0.0 2.0 0.00 0.00 0.00 90 1013.9
20260510145539 60 0 0.0 2.0 0.00 0.00 0.00 90 1013.9
20260510145039 60 301 0.0 2.0 0.00 0.00 0.00 90 1013.9
20260510144549 60 301 0.0 2.0 0.00 0.00 0.00 91 1013.9
20260510144039 59 0 0.0 1.0 0.00 0.00 0.00 91 1013.9
20260510143540 59 0 0.0 1.0 0.00 0.00 0.00 91 1013.8
20260510143053 59 0 0.0 1.0 0.00 0.00 0.00 92 1013.9
20260510142541 59 0 0.0 1.0 0.00 0.00 0.00 91 1014.0
20260510142039 58 0 0.0 1.0 0.00 0.00 0.00 92 1014.1
20260510141550 58 0 0.0 2.0 0.00 0.00 0.00 92 1014.1
20260510141038 59 0 0.0 2.0 0.00 0.00 0.00 92 1013.9
20260510140538 59 305 0.0 1.0 0.00 0.00 0.00 93 1013.7
20260510140054 59 0 0.0 2.0 0.00 0.00 0.00 93 1013.5
20260510135539 58 0 0.0 2.0 0.00 0.00 0.00 93 1013.3
20260510135039 58 303 0.0 2.0 0.00 0.00 0.00 93 1013.2
20260510134545 58 0 0.0 2.0 0.00 0.00 0.00 94 1013.1
20260510134039 58 0 0.0 2.0 0.00 0.00 0.00 94 1013.2
20260510133538 58 139 0.0 1.0 0.00 0.00 0.00 94 1013.2
20260510133058 57 0 0.0 1.0 0.00 0.00 0.00 94 1013.2
20260510132538 57 0 0.0 1.0 0.00 0.00 0.00 94 1013.4
20260510132039 57 0 0.0 1.0 0.00 0.00 0.00 94 1013.3
20260510131552 57 0 0.0 1.0 0.00 0.00 0.00 94 1013.2
20260510131038 56 0 0.0 1.0 0.00 0.00 0.00 94 1013.2
20260510130542 56 0 0.0 1.0 0.00 0.00 0.00 94 1013.3
20260510130051 56 0 0.0 1.0 0.00 0.00 0.00 94 1013.2
20260510125539 56 0 0.0 1.0 0.00 0.00 0.00 94 1013.2
20260510125039 56 0 0.0 1.0 0.00 0.00 0.00 94 1013.3
20260510124607 56 0 0.0 0.0 0.00 0.00 0.00 94 1013.4
20260510124039 56 0 0.0 0.0 0.00 0.00 0.00 95 1013.4
20260510123539 56 0 0.0 0.0 0.00 0.00 0.00 95 1013.4
20260510123052 56 0 0.0 0.0 0.00 0.00 0.00 95 1013.3
20260510122541 56 0 0.0 2.0 0.00 0.00 0.00 95 1013.3
20260510122039 56 0 0.0 2.0 0.00 0.00 0.00 95 1013.4
20260510121549 56 139 0.0 2.0 0.00 0.00 0.00 95 1013.2
20260510121039 56 0 0.0 2.0 0.00 0.00 0.00 95 1013.3
20260510120538 55 297 0.0 2.0 0.00 0.00 0.00 95 1013.1
20260510120048 55 0 0.0 2.0 0.00 0.00 0.00 95 1013.2
20260510115538 55 0 0.0 2.0 0.00 0.00 0.00 95 1013.3
20260510115038 55 297 0.0 2.0 0.00 0.00 0.00 95 1013.2
20260510114553 55 0 0.0 2.0 0.00 0.00 0.00 95 1013.3
20260510114040 55 0 0.0 0.0 0.00 0.00 0.00 95 1013.3
20260510113542 54 0 0.0 0.0 0.00 0.00 0.00 95 1013.4
20260510113052 54 0 0.0 0.0 0.00 0.00 0.00 95 1013.5
20260510112539 54 0 0.0 0.0 0.00 0.00 0.00 95 1013.2
20260510112039 54 0 0.0 0.0 0.00 0.00 0.00 95 1013.3
20260510111607 54 0 0.0 2.0 0.00 0.00 0.00 95 1013.2
20260510111038 54 0 0.0 2.0 0.00 0.00 0.00 95 1013.1
20260510110538 54 0 0.0 2.0 0.00 0.00 0.00 95 1013.0
20260510110051 54 0 0.0 1.0 0.00 0.00 0.00 95 1013.0
20260510105540 53 0 0.0 1.0 0.00 0.00 0.00 95 1013.2
20260510105039 53 0 0.0 1.0 0.00 0.00 0.00 95 1013.0
20260510104601 53 0 0.0 0.0 0.00 0.00 0.00 95 1013.0
20260510104039 53 0 0.0 0.0 0.00 0.00 0.00 95 1013.1
20260510103538 53 0 0.0 0.0 0.00 0.00 0.00 95 1013.2
20260510103047 53 0 0.0 0.0 0.00 0.00 0.00 95 1013.2
20260510102543 53 0 0.0 0.0 0.00 0.00 0.00 95 1013.2
20260510102039 53 0 0.0 0.0 0.00 0.00 0.00 95 1013.1
20260510101553 53 0 0.0 0.0 0.00 0.00 0.00 95 1013.0
20260510101043 53 0 0.0 0.0 0.00 0.00 0.00 95 1013.0
20260510100542 53 0 0.0 0.0 0.00 0.00 0.00 95 1012.9
20260510100051 53 0 0.0 0.0 0.00 0.00 0.00 95 1012.9
20260510095537 53 0 0.0 0.0 0.00 0.00 0.00 95 1012.7
20260510095039 53 0 0.0 0.0 0.00 0.00 0.00 95 1012.8
20260510094551 53 0 0.0 0.0 0.00 0.00 0.00 95 1012.8
20260510094036 53 0 0.0 1.0 0.00 0.00 0.00 95 1012.9
20260510093542 53 0 0.0 2.0 0.00 0.00 0.00 95 1012.8
20260510093048 53 0 0.0 2.0 0.00 0.00 0.00 95 1012.5
20260510092537 53 0 0.0 0.0 0.00 0.00 0.00 95 1012.5
20260510092042 53 0 0.0 0.0 0.00 0.00 0.00 95 1012.6
20260510091555 52 0 0.0 0.0 0.00 0.00 0.00 95 1012.6
20260510091040 52 0 0.0 0.0 0.00 0.00 0.00 95 1012.5
20260510090539 52 0 0.0 0.0 0.00 0.00 0.00 95 1012.4
20260510090101 52 0 0.0 0.0 0.00 0.00 0.00 95 1012.4
20260510085538 52 0 0.0 0.0 0.00 0.00 0.00 95 1012.2
20260510085039 52 0 0.0 0.0 0.00 0.00 0.00 95 1012.2
20260510084557 52 0 0.0 0.0 0.00 0.00 0.00 95 1012.3
20260510084039 52 0 0.0 1.0 0.00 0.00 0.00 95 1012.3
20260510083538 52 0 0.0 2.0 0.00 0.00 0.00 95 1012.3
20260510083052 52 0 0.0 2.0 0.00 0.00 0.00 95 1012.4
20260510082539 52 0 0.0 0.0 0.00 0.00 0.00 95 1012.3
20260510082038 52 0 0.0 0.0 0.00 0.00 0.00 95 1012.4
20260510081550 52 0 0.0 0.0 0.00 0.00 0.00 95 1012.2
20260510081040 52 0 0.0 0.0 0.00 0.00 0.00 95 1012.1
20260510080538 52 0 0.0 0.0 0.00 0.00 0.00 94 1012.1
20260510080056 52 0 0.0 0.0 0.00 0.00 0.00 94 1012.1
20260510075538 52 0 0.0 0.0 0.00 0.00 0.00 94 1012.3
20260510075038 52 0 0.0 0.0 0.00 0.00 0.00 94 1012.2
20260510074549 52 0 0.0 0.0 0.00 0.00 0.00 94 1012.2
20260510074043 52 0 0.0 0.0 0.00 0.00 0.00 94 1012.2
20260510073539 52 0 0.0 0.0 0.00 0.00 0.00 94 1012.1
20260510073052 52 0 0.0 0.0 0.00 0.00 0.00 94 1012.0
20260510072539 52 0 0.0 0.0 0.00 0.00 0.00 94 1012.0
20260510072039 52 0 0.0 0.0 0.00 0.00 0.00 94 1011.8
20260510071552 52 0 0.0 0.0 0.00 0.00 0.00 94 1011.9
20260510071038 52 0 0.0 0.0 0.00 0.00 0.00 94 1011.9
20260510070538 52 0 0.0 0.0 0.00 0.00 0.00 94 1011.9
20260510070059 51 0 0.0 0.0 0.00 0.00 0.00 94 1011.9
20260510065539 51 0 0.0 0.0 0.00 0.00 0.00 94 1011.8
20260510065039 51 0 0.0 0.0 0.00 0.00 0.00 94 1011.7
20260510064605 51 0 0.0 0.0 0.00 0.00 0.00 94 1011.8
20260510064038 51 0 0.0 0.0 0.00 0.00 0.00 94 1011.7
20260510063538 51 0 0.0 0.0 0.00 0.00 0.00 94 1011.6
20260510063049 51 0 0.0 2.0 0.00 0.00 0.00 94 1011.7
20260510062538 52 0 0.0 2.0 0.00 0.00 0.00 94 1011.6
20260510062041 52 0 0.0 2.0 0.00 0.00 0.00 94 1011.7
20260510061551 52 0 0.0 0.0 0.00 0.00 0.00 94 1011.9
20260510061039 52 0 0.0 0.0 0.00 0.00 0.00 94 1011.9
20260510060542 52 0 0.0 0.0 0.00 0.00 0.00 94 1011.9
20260510060052 52 0 0.0 0.0 0.00 0.00 0.00 94 1011.8
20260510055538 52 0 0.0 0.0 0.00 0.00 0.00 94 1011.8
20260510055039 52 0 0.0 0.0 0.00 0.00 0.00 94 1011.8
20260510054552 52 0 0.0 0.0 0.00 0.00 0.00 94 1011.9
20260510054039 52 0 0.0 1.0 0.00 0.00 0.00 94 1011.9
20260510053539 52 0 0.0 1.0 0.00 0.00 0.00 94 1011.8
20260510053051 52 195 0.0 2.0 0.00 0.00 0.00 94 1011.8
20260510052538 52 0 0.0 2.0 0.00 0.00 0.00 94 1011.8
20260510052040 52 0 0.0 0.0 0.00 0.00 0.00 94 1011.9
20260510051557 52 0 0.0 1.0 0.00 0.00 0.00 94 1011.8
20260510051039 52 0 0.0 1.0 0.00 0.00 0.00 94 1011.8
20260510050539 52 0 0.0 1.0 0.00 0.00 0.00 94 1011.7
20260510050051 52 0 0.0 1.0 0.00 0.00 0.00 94 1011.8
20260510045538 52 0 0.0 1.0 0.00 0.00 0.00 94 1011.9
20260510045039 52 0 0.0 0.0 0.00 0.00 0.00 94 1011.8
20260510044559 52 0 0.0 0.0 0.00 0.00 0.00 94 1011.8
20260510044038 52 0 0.0 0.0 0.00 0.00 0.00 94 1011.8
20260510043538 53 0 0.0 0.0 0.00 0.00 0.00 94 1011.8
20260510043054 53 0 0.0 3.0 0.00 0.00 0.00 94 1011.8
20260510042541 53 0 0.0 3.0 0.00 0.00 0.00 94 1011.8
20260510042039 53 0 0.0 1.0 0.00 0.00 0.00 94 1011.9
20260510041634 53 0 0.0 1.0 0.00 0.00 0.00 94 1012.0
20260510041041 53 0 0.0 2.0 0.00 0.00 0.00 94 1012.0
20260510040540 52 0 0.0 2.0 0.00 0.00 0.00 94 1012.0
20260510040053 52 184 0.0 2.0 0.00 0.00 0.00 94 1012.0
20260510035538 52 0 0.0 3.0 0.00 0.00 0.00 94 1011.9
20260510035038 52 184 1.0 3.0 0.00 0.00 0.00 94 1011.8
20260510034602 52 75 1.0 3.0 0.00 0.00 0.00 94 1011.9
20260510034039 52 0 0.0 3.0 0.00 0.00 0.00 94 1011.9
20260510033538 52 237 0.0 2.0 0.00 0.00 0.00 94 1012.1
20260510033050 52 0 0.0 2.0 0.00 0.00 0.00 94 1012.1
20260510032537 52 0 0.0 2.0 0.00 0.00 0.00 94 1012.0
20260510032041 52 0 0.0 2.0 0.00 0.00 0.00 94 1011.8
20260510031602 51 237 0.0 2.0 0.00 0.00 0.00 94 1011.9
20260510031038 51 0 0.0 5.0 0.00 0.00 0.00 94 1012.0
20260510030537 51 0 0.0 5.0 0.00 0.00 0.00 94 1011.9
20260510030057 51 0 0.0 5.0 0.00 0.00 0.00 94 1011.9
20260510025538 51 0 0.0 2.0 0.00 0.00 0.00 94 1012.0
20260510025043 51 0 0.0 1.0 0.00 0.00 0.00 94 1012.1
20260510024552 51 0 0.0 1.0 0.00 0.00 0.00 94 1012.1
20260510024042 51 0 0.0 1.0 0.00 0.00 0.00 94 1012.2
20260510023538 51 0 0.0 1.0 0.00 0.00 0.00 94 1012.1
20260510023049 51 0 0.0 1.0 0.00 0.00 0.00 93 1012.2
20260510022538 51 0 0.0 1.0 0.00 0.00 0.00 93 1012.1
20260510022038 51 0 0.0 1.0 0.00 0.00 0.00 93 1012.2
20260510021552 50 0 0.0 1.0 0.00 0.00 0.00 93 1012.2
20260510021039 50 0 0.0 1.0 0.00 0.00 0.00 93 1012.1
20260510020539 50 0 0.0 1.0 0.00 0.00 0.00 93 1012.3
20260510020048 50 0 0.0 2.0 0.00 0.00 0.00 93 1012.4
20260510015541 50 0 0.0 2.0 0.00 0.00 0.00 93 1012.7
20260510015036 51 0 0.0 1.0 0.00 0.00 0.00 93 1012.8
20260510014550 51 0 0.0 3.0 0.00 0.00 0.00 93 1013.0
20260510014038 51 0 0.0 3.0 0.00 0.00 0.00 93 1013.0
20260510013539 51 0 0.0 2.0 0.00 0.00 0.00 93 1013.0
20260510013052 51 0 0.0 3.0 0.00 0.00 0.00 93 1013.0
20260510012538 51 0 0.0 4.0 0.00 0.00 0.00 93 1013.0
20260510012038 51 0 0.0 4.0 0.00 0.00 0.00 93 1013.0
20260510011549 51 0 0.0 0.0 0.00 0.00 0.00 93 1013.0
20260510011037 51 0 0.0 0.0 0.00 0.00 0.00 93 1013.0
20260510010537 51 0 0.0 2.0 0.00 0.00 0.00 93 1013.1
20260510010047 51 0 0.0 2.0 0.00 0.00 0.00 93 1013.1
20260510005538 51 0 0.0 2.0 0.00 0.00 0.00 93 1013.0
20260510005037 51 0 0.0 2.0 0.00 0.00 0.00 93 1013.0
20260510004548 51 0 0.0 2.0 0.00 0.00 0.00 93 1013.0
20260510004037 51 0 0.0 2.0 0.00 0.00 0.00 93 1013.2
20260510003547 51 287 0.0 2.0 0.00 0.00 0.00 93 1013.2
20260510003055 51 0 0.0 2.0 0.00 0.00 0.00 93 1013.3
20260510002536 52 0 0.0 2.0 0.00 0.00 0.00 93 1013.2
20260510002040 52 0 0.0 2.0 0.00 0.00 0.00 93 1013.3
20260510001552 52 0 0.0 2.0 0.00 0.00 0.00 93 1013.4
20260510001038 52 0 0.0 2.0 0.00 0.00 0.00 93 1013.4
20260510000539 52 316 0.0 2.0 0.00 0.00 0.00 93 1013.3
20260509235538 52 0 0.0 1.0 0.00 0.00 0.00 93 1013.5
20260509235038 52 0 0.0 1.0 0.00 0.00 0.00 93 1013.6
20260509234601 52 0 0.0 1.0 0.00 0.00 0.00 93 1013.6
20260509234038 52 0 0.0 1.0 0.00 0.00 0.00 93 1013.7
20260509233536 52 0 0.0 2.0 0.00 0.00 0.00 92 1013.8
20260509233056 52 0 0.0 2.0 0.00 0.00 0.00 92 1013.8
20260509232540 52 0 0.0 2.0 0.00 0.00 0.00 92 1013.8
20260509232039 52 75 0.0 2.0 0.00 0.00 0.00 92 1013.7
20260509231608 52 0 0.0 2.0 0.00 0.00 0.00 92 1013.8
20260509231041 52 0 0.0 4.0 0.00 0.00 0.00 92 1013.6
20260509230539 52 329 0.0 4.0 0.00 0.00 0.00 92 1013.6
20260509225540 53 253 1.0 3.0 0.00 0.00 0.00 92 1013.6
20260509225040 53 24 1.0 5.0 0.00 0.00 0.00 92 1013.6
20260509224557 53 0 1.0 5.0 0.00 0.00 0.00 92 1013.6
20260509224041 53 297 1.0 6.0 0.00 0.00 0.00 92 1013.5
20260509223538 53 51 1.0 6.0 0.00 0.00 0.00 92 1013.5
20260509223049 53 57 1.0 5.0 0.00 0.00 0.00 92 1013.4
20260509222543 53 0 0.0 5.0 0.00 0.00 0.00 92 1013.5
20260509222038 53 103 0.0 3.0 0.00 0.00 0.00 91 1013.4
20260509221557 53 0 0.0 4.0 0.00 0.00 0.00 92 1013.5
20260509221041 53 0 0.0 4.0 0.00 0.00 0.00 91 1013.3
20260509220537 53 359 1.0 4.0 0.00 0.00 0.00 91 1013.3
20260509220050 53 66 0.0 2.0 0.00 0.00 0.00 91 1013.3
20260509215539 53 0 0.0 2.0 0.00 0.00 0.00 91 1013.3
20260509215038 54 66 0.0 1.0 0.00 0.00 0.00 91 1013.2
20260509214551 54 0 0.0 2.0 0.00 0.00 0.00 91 1013.0
20260509214038 54 0 0.0 2.0 0.00 0.00 0.00 90 1012.9
20260509213539 54 0 0.0 3.0 0.00 0.00 0.00 90 1012.9
20260509213053 54 0 0.0 3.0 0.00 0.00 0.00 90 1012.9
20260509212539 54 0 0.0 3.0 0.00 0.00 0.00 90 1012.8
20260509212043 55 116 0.0 2.0 0.00 0.00 0.00 90 1012.7
20260509211558 55 232 0.0 2.0 0.00 0.00 0.00 90 1012.7
20260509211038 55 0 0.0 3.0 0.00 0.00 0.00 89 1012.7
20260509210538 55 0 0.0 3.0 0.00 0.00 0.00 89 1012.4
20260509210104 56 0 0.0 3.0 0.00 0.00 0.00 88 1012.5
20260509205541 56 0 0.0 3.0 0.00 0.00 0.00 88 1012.8
20260509205039 57 204 1.0 2.0 0.00 0.00 0.00 87 1012.8
20260509204549 57 0 0.0 4.0 0.00 0.00 0.00 86 1012.7
20260509204037 57 18 0.0 4.0 0.00 0.00 0.00 85 1012.5
20260509203541 57 0 0.0 3.0 0.00 0.00 0.00 85 1012.6
20260509203053 58 322 0.0 3.0 0.00 0.00 0.00 85 1012.6
20260509202539 58 235 0.0 5.0 0.00 0.00 0.00 85 1012.6
20260509202042 58 235 1.0 5.0 0.00 0.00 0.00 84 1012.8
20260509201558 58 226 0.0 2.0 0.00 0.00 0.00 85 1012.8
20260509201038 58 0 0.0 3.0 0.00 0.00 0.00 84 1012.7
20260509200538 58 0 0.0 4.0 0.00 0.00 0.00 84 1012.7
20260509195541 58 40 0.0 4.0 0.00 0.00 0.00 84 1012.9
20260509195039 58 241 0.0 4.0 0.00 0.00 0.00 85 1012.8
20260509194549 58 332 0.0 5.0 0.00 0.00 0.00 84 1013.0
20260509194039 58 213 0.0 5.0 0.00 0.00 0.00 85 1012.9
20260509193539 58 0 1.0 4.0 0.00 0.00 0.00 85 1012.9
20260509193053 58 0 0.0 4.0 0.00 0.00 0.00 85 1013.0
20260509192543 58 192 0.0 3.0 0.00 0.00 0.00 84 1012.9
20260509192039 58 117 1.0 3.0 0.00 0.00 0.00 84 1013.0
20260509191556 59 0 0.0 3.0 0.00 0.00 0.00 84 1013.0
20260509191040 59 231 1.0 3.0 0.00 0.00 0.00 83 1013.4
20260509190536 59 22 1.0 3.0 0.00 0.00 0.00 83 1013.3
20260509190107 60 276 0.0 3.0 0.00 0.00 0.00 83 1013.2
20260509185539 59 40 1.0 3.0 0.00 0.00 0.00 84 1013.2
20260509185039 59 0 0.0 4.0 0.00 0.00 0.00 84 1013.2
20260509184556 59 143 1.0 4.0 0.00 0.00 0.00 83 1013.2
20260509184038 60 107 1.0 3.0 0.00 0.00 0.00 82 1013.2
20260509183541 60 292 0.0 2.0 0.00 0.00 0.00 81 1013.3
20260509183051 60 0 0.0 4.0 0.00 0.00 0.00 82 1013.2
20260509182538 61 0 0.0 4.0 0.00 0.00 0.00 80 1013.3
20260509182041 61 0 0.0 3.0 0.00 0.00 0.00 79 1013.5
20260509181550 62 252 0.0 3.0 0.00 0.00 0.00 78 1013.5
20260509181038 62 0 0.0 3.0 0.00 0.00 0.00 79 1013.5
20260509180537 62 42 0.0 3.0 0.00 0.00 0.00 79 1013.5
20260509180059 62 42 0.0 3.0 0.00 0.00 0.00 78 1013.5
20260509175538 62 332 1.0 3.0 0.00 0.00 0.00 78 1013.6
20260509175039 62 120 0.0 2.0 0.00 0.00 0.00 79 1013.6
20260509174554 62 0 0.0 3.0 0.00 0.00 0.00 80 1013.6
20260509174042 62 0 0.0 3.0 0.00 0.00 0.00 81 1013.6
20260509173538 61 0 0.0 3.0 0.00 0.00 0.00 83 1013.6
20260509173100 61 216 0.0 2.0 0.00 0.00 0.00 82 1013.7
20260509172539 60 0 0.0 2.0 0.00 0.00 0.00 82 1013.7
20260509172039 60 0 0.0 2.0 0.00 0.00 0.00 83 1013.8
20260509171550 60 198 0.0 2.0 0.00 0.00 0.00 83 1013.8
20260509171039 59 0 0.0 2.0 0.00 0.00 0.00 84 1013.9